This is the latest recevied weather packets stored in our database for station/object WX4ET. If no packets are shown the sender has not sent any weather packets the latest 10 day(s).
| Time | Temp. | Humidity | Pressure | Rain* | Wind** | Luminosity | Snow |
|---|---|---|---|---|---|---|---|
| 1777594524 | 16.11° C | 46% | 1008.5 hPa | 0 mm | - | 2 W/m² | - |
| 1777594221 | 16.11° C | 46% | 1008.5 hPa | 0 mm | - | 5 W/m² | - |
| 1777593916 | 16.67° C | 45% | 1008.1 hPa | 0 mm | - | 7 W/m² | - |
| 1777593613 | 16.67° C | 44% | 1008.3 hPa | 0 mm | - | 9 W/m² | - |
| 1777593309 | 16.67° C | 43% | 1008.1 hPa | 0 mm | - | 13 W/m² | - |
| 1777593003 | 17.22° C | 42% | 1008 hPa | 0 mm | - | 16 W/m² | - |
| 1777592698 | 18.33° C | 40% | 1008.2 hPa | 0 mm | - | 19 W/m² | - |
| 1777592394 | 18.33° C | 40% | 1008 hPa | 0 mm | - | 23 W/m² | - |
| 1777592089 | 18.33° C | 39% | 1008.3 hPa | 0 mm | - | 26 W/m² | - |
| 1777591787 | 18.33° C | 38% | 1008 hPa | 0 mm | - | 31 W/m² | - |
| 1777591482 | 18.89° C | 38% | 1007.9 hPa | 0 mm | - | 33 W/m² | - |
| 1777591178 | 18.89° C | 39% | 1007.8 hPa | 0 mm | - | 37 W/m² | - |
| 1777590872 | 18.89° C | 40% | 1007.9 hPa | 0 mm | - | 65 W/m² | - |
| 1777590570 | 18.89° C | 38% | 1007.8 hPa | 0 mm | - | 75 W/m² | - |
| 1777590266 | 19.44° C | 40% | 1007.9 hPa | 0 mm | - | 83 W/m² | - |
| 1777589964 | 20° C | 41% | 1007.9 hPa | 0 mm | - | 101 W/m² | - |
| 1777589660 | 19.44° C | 39% | 1007.7 hPa | 0 mm | - | 117 W/m² | - |
| 1777589357 | 20° C | 40% | 1007.7 hPa | 0 mm | - | 132 W/m² | - |
| 1777589054 | 19.44° C | 40% | 1007.6 hPa | 0 mm | - | 148 W/m² | - |
| 1777588750 | 20° C | 38% | 1007.9 hPa | 0 mm | - | 163 W/m² | - |
| 1777588446 | 20° C | 41% | 1007.5 hPa | 0 mm | - | 178 W/m² | - |
| 1777588141 | 19.44° C | 42% | 1007.7 hPa | 0 mm | - | 193 W/m² | - |
| 1777587838 | 19.44° C | 43% | 1007.5 hPa | 0 mm | - | 184 W/m² | - |
| 1777587537 | 20° C | 40% | 1007.7 hPa | 0 mm | - | 219 W/m² | - |
| 1777587233 | 20° C | 41% | 1007.5 hPa | 0 mm | - | 237 W/m² | - |
* Rain latest hour (hover to see other rain measurements)
** Current wind speed in m/s (hover to see current wind gust speed)